Location: Lussas
(44.6119°N, 4.4726°E)
Time: 17:10:35
(UTC+00:00)

Meteor 1-4 Rocket - Visible Passes

Search period start: 16 April 2021 00:00
Search period end: 26 April 2021 00:00
Orbit: 447 x 500 km, 81.2° (Epoch: 15 April)

Date Brightness Start Highest point End Pass type
(mag) Time Alt. Az. Time Alt. Az. Time Alt. Az.
16 Apr 5.5 22:06:47 14° N 22:06:47 14° N 22:07:22 10° N visible
17 Apr 5.1 21:38:30 16° NNE 21:38:30 16° NNE 21:39:17 10° NNE visible
18 Apr 4.9 21:10:12 16° NNE 21:10:12 16° NNE 21:11:01 10° NNE visible
18 Apr 5.8 22:44:18 10° NW 22:44:18 10° NW 22:44:24 10° NW visible
19 Apr 4.8 20:41:50 14° NE 20:41:50 14° NE 20:42:31 10° NE visible
19 Apr 5.4 22:15:57 16° NW 22:15:57 16° NW 22:17:16 10° NNW visible
20 Apr 4.9 20:13:26 11° ENE 20:13:26 11° ENE 20:13:37 10° NE visible
20 Apr 4.7 21:47:33 26° NW 21:47:33 26° NW 21:49:35 10° N visible
21 Apr 3.6 21:19:04 42° NNW 21:19:04 42° NNW 21:21:39 10° N visible
22 Apr 2.7 20:50:33 58° NE 20:50:33 58° NE 20:53:32 10° NNE visible
23 Apr 3.0 20:21:57 38° E 20:21:57 38° E 20:25:14 10° NNE visible
23 Apr 5.4 21:56:02 12° W 21:57:08 13° WNW 21:58:55 10° NW visible
24 Apr 3.7 19:53:15 21° ESE 19:53:53 22° E 19:56:42 10° NE visible
24 Apr 4.8 21:27:20 17° WSW 21:28:48 21° WNW 21:31:36 10° NNW visible
25 Apr 4.4 19:24:27 11° ESE 19:25:55 13° E 19:27:42 10° ENE visible
25 Apr 3.9 20:58:32 19° SW 21:00:32 36° WNW 21:03:52 10° N visible
